Home > Weather > Sarpsborg > Past weeks

Flag for Norway Past Weather in Sarpsborg, Norway — Yesterday and Last 2 Weeks

Now
64 °F

Sunny.


Feels Like: 64 °F
Forecast: 54 / 66 °F
Wind: 16 mph from Southwest

Location: Rygge

Current Time: Jun 28, 2016 at 6:58:46 PM

Latest Report: Jun 28, 2016 at 6:20 PM


Visibility: 10 mi

Pressure: 29.86 "Hg

Humidity: 64%

Dew Point: 52 °F

Location of SarpsborgLocation

Past Weather in Sarpsborg — Graph

°F

Sarpsborg Temperature Yesterday

Maximum temperature yesterday: 63 °F (at 1:50 PM)
Minimum temperature yesterday: 55 °F (at 3:50 AM)
Average temperature yesterday: 59 °F

High & Low Weather Summary for the Past Weeks

 TemperatureHumidityPressure
High73 °F (Jun 16, 1:50 PM)100% (Jun 15, 9:20 PM)30.18 "Hg (Jun 15, 9:20 PM)
Low46 °F (Jun 14, 4:50 AM)29% (Jun 14, 11:50 AM)29.56 "Hg (Jun 16, 6:20 PM)
Average61 °F78%29.81 "Hg
* Reported Jun 13 5:20 PM — Jun 28 5:20 PM, Sarpsborg, Weather by CustomWeather, © 2016

Note: Actual official high and low records may vary slightly from our data, if they occured in-between our weather recording intervals... More about our weather records

Advertising

Sarpsborg Weather History for the Previous 24 Hours

Scroll right to see more
 ConditionsComfort  
Time TempWeatherWind HumidityBarometerVisibility
5:20 PM
Tue, Jun 28
64 °FSunny.15 mph64%29.86 "Hg10 mi
4:50 PM66 °FPassing clouds.13 mph60%29.86 "HgN/A
4:20 PM66 °FSunny.14 mph60%29.86 "Hg10 mi
3:50 PM66 °FSunny.17 mph60%29.86 "Hg10 mi
3:20 PM66 °FPassing clouds.15 mph60%29.86 "HgN/A
2:50 PM64 °FSunny.17 mph60%29.86 "Hg10 mi
2:20 PM64 °FPassing clouds.17 mph60%29.86 "HgN/A
1:50 PM64 °FPassing clouds.16 mph56%29.86 "HgN/A
1:20 PM64 °FPassing clouds.15 mph56%29.86 "HgN/A
12:50 PM64 °FScattered clouds.14 mph56%29.86 "HgN/A
12:20 PM64 °FScattered clouds.12 mph60%29.86 "HgN/A
11:50 AM64 °FScattered clouds.10 mph60%29.83 "HgN/A
11:20 AM63 °FScattered clouds.10 mph64%29.83 "HgN/A
10:50 AM63 °FScattered clouds.7 mph64%29.83 "HgN/A
10:20 AM63 °FPassing clouds.6 mph64%29.83 "HgN/A
9:50 AM61 °FPassing clouds.7 mph63%29.83 "HgN/A
9:20 AM61 °FPassing clouds.7 mph68%29.80 "HgN/A
8:50 AM61 °FPassing clouds.8 mph63%29.80 "HgN/A
8:20 AM59 °FPassing clouds.6 mph72%29.80 "HgN/A
7:50 AM59 °FPassing clouds.7 mph72%29.80 "HgN/A
7:20 AM57 °FScattered clouds.6 mph88%29.80 "HgN/A
6:50 AM57 °FScattered clouds.6 mph88%29.77 "HgN/A
6:20 AM55 °FSunny.5 mph94%29.77 "Hg10 mi
5:50 AM55 °FCool.5 mph94%29.77 "HgN/A
5:20 AM54 °FCool.6 mph100%29.77 "HgN/A
4:50 AM54 °FCool.6 mph100%29.77 "HgN/A
4:20 AM55 °FPassing clouds.5 mph94%29.77 "HgN/A
3:50 AM55 °FPassing clouds.5 mph94%29.77 "HgN/A
3:20 AM55 °FLow clouds.5 mph100%29.74 "HgN/A
2:50 AM55 °FPartly cloudy.5 mph100%29.77 "HgN/A
2:20 AM55 °FPassing clouds.6 mph100%29.77 "HgN/A
1:50 AM57 °FPassing clouds.6 mph94%29.74 "HgN/A
1:20 AM57 °FPartly cloudy.7 mph94%29.74 "HgN/A
12:50 AM59 °FMostly cloudy.8 mph94%29.74 "HgN/A
12:20 AM59 °FPartly cloudy.8 mph94%29.74 "HgN/A
11:50 PM
Mon, Jun 27
59 °FOvercast.8 mph94%29.74 "HgN/A
11:20 PM57 °FMore clouds than sun.8 mph100%29.74 "HgN/A
10:50 PM57 °FHeavy rain. Mostly cloudy.7 mph94%29.77 "Hg1 mi
10:20 PM57 °FRain. Cloudy.7 mph94%29.77 "Hg2 mi
9:50 PM57 °FDrizzle. Broken clouds.6 mph94%29.77 "Hg3 mi
9:20 PM57 °FDrizzle. Broken clouds.8 mph94%29.77 "Hg6 mi
8:50 PM57 °FDrizzle. Partly sunny.8 mph94%29.77 "Hg3 mi
8:20 PM59 °FPartly sunny.8 mph88%29.77 "HgN/A
7:50 PM59 °FDrizzle. Partly sunny.12 mph82%29.77 "HgN/A
7:20 PM61 °FBroken clouds.14 mph77%29.77 "HgN/A
6:50 PM61 °FBroken clouds.15 mph77%29.77 "HgN/A
6:20 PM63 °FPartly sunny.16 mph73%29.77 "HgN/A
Weather by CustomWeather, © 2016

See weather overviewHow to use our weather pages